View from above orbital plane
|
View from above satellite
|
Ground track
|
The orbit data is extracted from the following two-line orbital elements,
1 00022U 59009A 21056.85559062 .00000292 00000-0 44758-4 0 9996
2 00022 50.2851 352.8637 0138787 147.0861 213.8823 14.95416133508289
Epoch (UTC): | 25 February 2021 20:32:03 |
Eccentricity: | 0.0138787 |
inclination: | 50.2851° |
perigee height: | 484 km |
apogee height: | 677 km |
right ascension of ascending node: | 352.8637° |
argument of perigee: | 147.0861° |
revolutions per day: | 14.95416133 |
mean anomaly at epoch: | 213.8823° |
orbit number at epoch: | 50828 |
The dashed part of the orbit path shows where the satellite is in the earth's shadow,
|
|